Regional Weather Roundup
Issued by NWS

Home | Current Version | Previous Version | Text Only | Print | Product List | Glossary Off
Versions: 1 2 3 4 5 6 7 8 9 10 11 12 13 14 15 16 17 18 19 20 21 22 23 24 25 26 27 28 29 30 31 32 33 34 35 36 37 38 39 40 41 42 43 44 45 46 47 48 49 50

000
ASUS43 KDTX 041410
RWRMI
MICHIGAN HOURLY REGIONAL WEATHER ROUNDUP
NATIONAL WEATHER SERVICE DETROIT/PONTIAC MI
900 AM EST WED MAR 04 2015

NOTE: "FAIR" INDICATES FEW OR NO CLOUDS BELOW 12,000 FEET WITH NO
SIGNIFICANT WEATHER AND/OR OBSTRUCTION TO VISIBILITY.

MIZ047>049-052>055-059>063-066>070-074>076-081>083-041500-
SOUTHEAST LOWER MICHIGAN

CITY           SKY/WX    TMP DP  RH WIND       PRES   REMARKS
ADRIAN         CLOUDY    31  23  72 NW6       29.94R
ALMA           MOSUNNY   25  18  74 W12       29.92R
ANN ARBOR      CLOUDY    31  23  72 W6        29.93R
BAD AXE        CLOUDY    25  18  77 NW9       29.90R
DETROIT CITY   CLOUDY    33  22  63 W8        29.93R
DETROIT        CLOUDY    32  23  69 W8        29.94R
FLINT          CLOUDY    30  20  66 W12       29.92R
GROSSE ILE     CLOUDY    32  25  74 W8        29.93R
HILLSDALE      CLOUDY    30  23  75 W7        29.91S
HOWELL         PTSUNNY   29  23  76 W13       29.91R

CITY           SKY/WX    TMP DP  RH WIND       PRES   REMARKS
JACKSON        CLOUDY    29  22  75 NW12      29.91R
LAMBERTVILLE   CLOUDY    34  27  75 W5        29.95R
LANSING        MOSUNNY   28  18  66 NW12      29.92F HAZE
LAPEER         NOT AVBL
MASON          MOSUNNY   28  18  65 NW9       29.92R
MONROE         CLOUDY    32  25  74 W6        29.93R
MT. CLEMENS    CLOUDY    31  21  66 W8        29.90R
PONTIAC        CLOUDY    29  21  72 W12       29.89R
PORT HOPE        N/A     25  19  78 NW10      29.88R
PORT HURON     CLOUDY    30  19  64 W6        29.92R
TRI CITIES     MOSUNNY   25  17  72 SW8       29.91R
YPSILANTI      CLOUDY    34  24  67 W7        29.93R
$$
MIZ043>046-050>051-056>058-064>065-071>073-077>080-041500-
SOUTHWEST LOWER MICHIGAN

CITY           SKY/WX    TMP DP  RH WIND       PRES   REMARKS
BATTLE CREEK   CLOUDY    27  19  72 NW9G21    29.94S
BENTON HARBOR  CLOUDY    24  17  74 NW10G21   30.01R
BIG RAPIDS     FLURRIES  22  16  78 W10       29.90R
COLDWATER      CLOUDY    30  22  72 W12       29.94R
HOLLAND        PTSUNNY   25  14  63 NW8       29.98R
GRAND RAPIDS   MOSUNNY   23  13  65 NW14      29.96R
KALAMAZOO      CLOUDY    27  18  69 NW15      29.96R
MARSHALL       CLOUDY    28  20  71 NW8       29.93R
MUSKEGON       CLOUDY    23  14  68 NW10G23   29.99R
$$
MIZ016>042-041500-
NORTHERN LOWER MICHIGAN

CITY           SKY/WX    TMP DP  RH WIND       PRES   REMARKS
ALPENA         CLOUDY    17   8  67 NW8       29.88R
BEAVER ISLAND  CLOUDY    11   5  77 NW8       29.91R
BELLAIRE       LGT SNOW  17  11  78 CALM      29.93R
CADILLAC       CLOUDY    17   9  71 W8        29.87R
CHARLEVOIX     CLOUDY    13   5  69 CALM      29.94R
FRANKFORT      MOSUNNY   17   7  66 NW14G24   29.96R
GAYLORD        LGT SNOW  12   6  77 NW8       29.84R
GRAYLING       LGT SNOW  18  15  87 W6        29.86R
HARBOR SPRINGS CLOUDY    15   4  63 W3        29.90R
HOUGHTON LAKE  MOSUNNY   18   9  68 W14G21    29.87R
MANISTEE       CLOUDY    19   7  58 NW16G24   29.96R
OSCODA         SUNNY     21  14  74 W7        29.88R
PELLSTON       CLOUDY    13   3  64 NW15G24   29.89R WCI  -3
TRAVERSE CITY  FLURRIES  18  11  74 NW14G24   29.92R
$$
MIZ007>008-015-041500-
EASTERN UPPER MICHIGAN

CITY           SKY/WX    TMP DP  RH WIND       PRES   REMARKS
KINROSS        CLOUDY    10   5  79 W16       29.85R WCI  -7
MACKINAC ISLAN CLOUDY    13   6  74 W10G16    29.87R WCI  -1
NEWBERRY       CLOUDY     7   2  80 W8        29.87R
S. S. MARIE    LGT SNOW   9   2  73 W14G22    29.85R WCI  -7
$$
MIZ004>006-011>014-085-041500-
CENTRAL UPPER MICHIGAN

CITY           SKY/WX    TMP DP  RH WIND       PRES   REMARKS
MANISTIQUE     SUNNY      9   0  64 NW9G17    29.91R
ESCANABA       SUNNY      9  -2  61 NW10G20   29.96R WCI  -6
MENOMINEE      SUNNY      9  -4  56 W8G16     29.98R
SAWYER-GWINN   MOSUNNY    1  -4  78 W3        29.86R
$$
MIZ001>003-009>011-084-041500-
WESTERN UPPER MICHIGAN

CITY           SKY/WX    TMP DP  RH WIND       PRES   REMARKS
IRON MOUNTAIN  SUNNY      3  -8  60 W15       29.92R WCI -16
HOUGHTON       MIX PCPN   1  -5  75 NW26G33   29.88R WCI -23
COPPER HARBOR    N/A      2  -6  69 N24G32    29.90R WCI -21
IRONWOOD       CLOUDY    -2  -8  78 W15       29.96R VSB 1   WCI -22
$$

ABBREVIATIONS USED IN REMARKS
   TC - TEMPERATURE IN CELSIUS
  WCI - WIND CHILL INDEX
   HX - HEAT INDEX
  VSB - VISIBILITY



USA.gov is the U.S. government's official web portal to all federal, state and local government web resources and services.